Weather History for KIWI - May, 2013

Change the Weather History Date:

Wednesday, May 15, 2013

  Actual Average Record
Temperature  
Mean Temperature 46 °F -  
Max Temperature 61 °F 61 °F 82 °F (2004)
Min Temperature 32 °F 38 °F 32 °F (2013)
Degree Days  
Heating Degree Days 18    
Moisture  
Dew Point 36 °F    
Average Humidity 67    
Maximum Humidity 92    
Minimum Humidity 21    
Precipitation  
Precipitation 0.26 in - - ()
Sea Level Pressure  
Sea Level Pressure 29.90 in    
Wind  
Wind Speed 4 mph (South)    
Max Wind Speed 13 mph    
Max Gust Speed 26 mph    
Visibility 9 miles    
Events Rain    
Averages and records for this station are not official NWS values.
T = Trace of Precipitation, MM = Missing Value Source: NWS Daily Summary

Daily Weather History Graph

Daily Weather History Graph

Search for Another Location

Airport or City:

Trip Planner

Search our weather history database for the weather conditions in past years. The results will help you decide how hot, cold, wet, or windy it might be!

Date:

Astronomy

May. 15, 2013 Rise Set
Actual Time 5:12 AM EDT 7:58 PM EDT
Civil Twilight 4:39 AM EDT 8:31 PM EDT
Nautical Twilight 3:57 AM EDT 9:14 PM EDT
Astronomical Twilight 3:08 AM EDT 10:03 PM EDT
Moon 9:46 AM EDT (5/15) No Moon Set
Length of Visible Light 15h 52m
Length of Day
14h 45m
Waxing Crescent, 26% of the Moon is Illuminated
May 15
Waxing Crescent
May 18
First Quarter
May 25
Full
May 31
Last Quarter
Jun 8
New

Hourly Weather History & Observations

Time (EDT) Temp. Dew Point Humidity Pressure Visibility Wind Dir Wind Speed Gust Speed Precip Events Conditions
12:53 AM 39.9 °F 36.0 °F 86% 30.01 in 10.0 mi Calm Calm - N/A   Partly Cloudy
1:53 AM 37.0 °F 34.0 °F 89% 30.01 in 10.0 mi Calm Calm - N/A   Clear
2:53 AM 35.1 °F 32.0 °F 89% 30.01 in 10.0 mi Calm Calm - N/A   Clear
3:53 AM 33.1 °F 30.0 °F 89% 30.01 in 10.0 mi Calm Calm - N/A   Clear
4:53 AM 32.0 °F 28.9 °F 88% 30.01 in 10.0 mi Calm Calm - N/A   Clear
5:53 AM 32.0 °F 30.0 °F 92% 30.03 in 10.0 mi Calm Calm - N/A   Clear
6:53 AM 41.0 °F 36.0 °F 82% 30.03 in 10.0 mi Calm Calm - N/A   Clear
7:53 AM 50.0 °F 30.0 °F 46% 30.03 in 10.0 mi Variable 4.6 mph - N/A   Clear
8:53 AM 55.9 °F 28.0 °F 34% 30.02 in 10.0 mi Variable 6.9 mph - N/A   Clear
9:53 AM 57.9 °F 21.9 °F 25% 30.00 in 10.0 mi Variable 5.8 mph - N/A   Clear
10:53 AM 59.0 °F 19.9 °F 22% 29.99 in 10.0 mi Variable 6.9 mph - N/A   Clear
11:53 AM 61.0 °F 21.0 °F 21% 29.97 in 10.0 mi South 11.5 mph 17.3 mph N/A   Clear
12:53 PM 60.1 °F 27.0 °F 28% 29.96 in 10.0 mi SSE 11.5 mph 17.3 mph N/A   Clear
1:53 PM 60.1 °F 26.1 °F 27% 29.94 in 10.0 mi South 10.4 mph 20.7 mph N/A   Clear
2:53 PM 59.0 °F 25.0 °F 27% 29.91 in - South 10.4 mph 26.5 mph N/A   Clear
3:53 PM 57.0 °F 32.0 °F 39% 29.89 in - South 8.1 mph 24.2 mph N/A   Clear
4:53 PM 55.0 °F 39.0 °F 55% 29.85 in 10.0 mi South 10.4 mph 18.4 mph N/A   Clear
5:53 PM 53.1 °F 44.1 °F 71% 29.83 in 10.0 mi Variable 6.9 mph - N/A   Scattered Clouds
6:53 PM 51.1 °F 46.0 °F 83% 29.81 in 4.0 mi Variable 6.9 mph - 0.04 in Rain Light Rain
7:50 PM 51.8 °F 48.2 °F 88% 29.81 in 9.0 mi SSW 6.9 mph - 0.11 in Rain Light Rain
7:53 PM 51.1 °F 48.0 °F 89% 29.81 in 7.0 mi South 10.4 mph 16.1 mph 0.12 in Rain Light Rain
8:12 PM 51.8 °F 48.2 °F 88% 29.78 in 5.0 mi South 10.4 mph 19.6 mph 0.02 in Rain Light Rain
8:53 PM 50.0 °F 46.9 °F 89% 29.78 in 8.0 mi South 10.4 mph 17.3 mph 0.08 in Rain Light Rain
9:00 PM 50.0 °F 46.4 °F 87% 29.78 in 7.0 mi South 12.7 mph 17.3 mph 0.00 in   Overcast
9:53 PM 50.0 °F 46.9 °F 89% 29.75 in 3.0 mi South 9.2 mph 16.1 mph 0.01 in   Overcast
10:17 PM 50.0 °F 46.4 °F 87% 29.74 in 5.0 mi South 4.6 mph - 0.01 in   Overcast
10:53 PM 50.0 °F 46.9 °F 89% 29.72 in 10.0 mi South 6.9 mph - 0.01 in   Overcast
11:53 PM 51.1 °F 46.9 °F 86% 29.68 in 10.0 mi South 6.9 mph - N/A   Overcast